Location: Cactus School
(34.5700°N, 118.0931°W)
Time: 03:15:44
(UTC-07:00)

Vanguard 1 - Visible Passes

Search period start: 25 June 2018 00:00
Search period end: 05 July 2018 00:00
Orbit: 650 x 3833 km, 34.3° (Epoch: 24 June)

Date Brightness Start Highest point End Pass type
(mag) Time Alt. Az. Time Alt. Az. Time Alt. Az.
25 Jun 11.7 03:56:52 15° S 04:00:58 26° SE 04:09:10 10° E visible
26 Jun 11.5 04:16:41 16° SSW 04:21:22 36° SE 04:31:13 10° E visible
27 Jun 11.2 04:36:29 15° SW 04:41:57 48° SSE 04:53:02 10° ENE visible
28 Jun 12.0 02:43:34 13° SE 02:43:40 13° SE 02:46:59 10° ESE visible
28 Jun 11.0 04:56:17 11° SW 05:02:41 61° SSE 05:14:44 10° ENE visible
29 Jun 11.4 03:03:21 21° SE 03:03:59 22° SE 03:09:46 10° E visible
30 Jun 10.9 03:23:07 29° SSE 03:24:25 32° SE 03:31:45 10° E visible
01 Jul 10.5 03:42:52 33° SSW 03:45:00 44° SSE 03:53:25 10° E visible
02 Jul 10.4 04:02:37 28° SW 04:05:44 59° SSE 04:14:59 10° E visible
03 Jul 11.9 02:09:40 14° ESE 02:09:40 14° ESE 02:11:19 10° E visible
03 Jul 10.3 04:22:23 20° WSW 04:26:36 72° SSE 04:36:31 10° E visible
04 Jul 11.2 02:29:25 24° ESE 02:29:25 24° ESE 02:33:13 10° E visible
04 Jul 10.4 04:42:08 12° WSW 04:47:35 82° S 04:58:05 10° E visible
